Regional Weather Roundup
Issued by NWS Goodland, KS

Home | Current Version | Previous Version | Graphics & Text | Print | Product List | Glossary On
Versions: 1 2 3 4 5 6 7 8 9 10 11 12 13 14 15 16 17 18 19 20 21 22 23 24 25 26 27 28 29 30 31 32 33 34 35 36 37 38 39 40 41 42 43 44 45 46 47 48 49 50
849
ASUS43 KGLD 260608
RWRGLD

GOODLAND FORECAST AREA HOURLY WEATHER ROUNDUP
NATIONAL WEATHER SERVICE GOODLAND KS
1200 AM MDT FRI MAY 26 2017

...OFFICIAL OBSERVATIONS...

CITY           SKY/WX    TMP DP  RH WIND       PRES   REMARKS
GOODLAND KS    CLOUDY    55  51  86 N7        29.76R
HILL CITY KS   PTCLDY    58  57  97 NW8       29.66R
IMPERIAL NEB   CLOUDY    59  50  72 CALM      29.71F
MCCOOK NEB     MOCLDY    57  54  89 NW10      29.71R
AKRON CO       CLOUDY    49  44  83 NW10      29.83R
BURLINGTON CO  CLOUDY    54  51  90 W7        29.83R
LIMON CO       CLOUDY    49  45  86 SW8       29.91R
$$

...UNOFFICIAL OBSERVATIONS...

CITY           SKY/WX    TMP DP  RH WIND       PRES   REMARKS
LENORA KS        N/A     56  32  40 MISG        N/A
NORTON KS      CLEAR     57  52  82 NW9       29.70R
SHARON SPRINGS   N/A     56  50  80 N10         N/A
TRENTON NEB      N/A     56  32  40 N6          N/A
KIT CARSON CO    N/A     56  49  78 MISG        N/A
YUMA CO        FAIR      50  46  87 W8        29.77R
$$




USA.gov is the U.S. government's official web portal to all federal, state and local government web resources and services.